User: anonymous   Login
Location: Newark
(45.0667°N, 7.8333°E)
Time: 19:03:44
(UTC+00:00)
Language:

NUDT-PHONESAT - Orbit

View from above orbital plane
View from above orbital plane
View from above satellite
View from above satellite

Ground track
Ground track

The orbit data is extracted from the following two-line orbital elements,

1 40900U 15049B   19293.50659613  .00001740  00000-0  76518-4 0  9994
2 40900  97.4375 301.6529 0014477 108.1711  43.1498 15.23154458226500
Epoch (UTC): 20 October 2019 12:09:29
Eccentricity: 0.0014477
inclination: 97.4375°
perigee height: 486 km
apogee height: 506 km
right ascension of ascending node: 301.6529°
argument of perigee: 108.1711°
revolutions per day: 15.23154458
mean anomaly at epoch: 43.1498°
orbit number at epoch: 22650

The dashed part of the orbit path shows where the satellite is in the earth's shadow,  

DLR